Location: Cornospital
(48.0620°N, 3.3837°W)
Time: 20:09:14
(UTC+00:00)

Cosmos 1953 - Pass Details

Date: 17 June 2021
Orbit: 537 x 557 km, 82.5° (Epoch: 02 August)

Event Time Altitude Azimuth Distance (km) Brightness Sun altitude
Rises 21:00:19 0° 355° (N) 2,755 6.8 -6.3°
Reaches altitude 10° 21:02:34 10° 2° (N) 1,855 5.7 -6.6°
Maximum altitude 21:06:30 44° 76° (ENE) 779 2.9 -7.0°
Drops below altitude 10° 21:10:23 10° 149° (SSE) 1,838 4.3 -7.5°
Enters shadow 21:10:34 - 150° (SSE) 1,911 4.4 -7.5°
